TimeEST,TemperatureF,Dew PointF,Humidity,Sea Level PressureIn,VisibilityMPH,Wind Direction,Wind SpeedMPH,Gust SpeedMPH,PrecipitationIn,Events,Conditions,WindDirDegrees,DateUTC
12:15 AM,33.8,26.6,75,29.70,10.0,ESE,11.5,25.3,N/A,,Unknown,110,2013-03-06 05:15:00
12:35 AM,33.8,26.6,75,29.70,10.0,ESE,17.3,23.0,N/A,,Unknown,110,2013-03-06 05:35:00
12:55 AM,33.8,26.6,75,29.70,10.0,ESE,12.7,20.7,N/A,,Unknown,120,2013-03-06 05:55:00
1:15 AM,33.8,26.6,75,29.70,10.0,ESE,13.8,19.6,N/A,,Unknown,120,2013-03-06 06:15:00
1:35 AM,33.8,26.6,75,29.70,10.0,ESE,10.4,18.4,N/A,,Unknown,120,2013-03-06 06:35:00
1:55 AM,33.8,28.4,81,29.70,7.0,ESE,9.2,19.6,N/A,,Unknown,110,2013-03-06 06:55:00
2:15 AM,33.8,30.2,87,29.70,2.5,ESE,8.1,16.1,N/A,,Unknown,110,2013-03-06 07:15:00
2:35 AM,32.0,32.0,100,29.70,1.8,ESE,8.1,-,N/A,,Unknown,110,2013-03-06 07:35:00
2:55 AM,30.2,30.2,100,29.70,1.2,East,5.8,-,0.01,,Unknown,90,2013-03-06 07:55:00
3:15 AM,30.2,30.2,100,29.70,1.0,Calm,Calm,-,0.01,,Unknown,0,2013-03-06 08:15:00
3:35 AM,30.2,30.2,100,29.72,1.2,East,4.6,-,0.02,,Unknown,100,2013-03-06 08:35:00
3:55 AM,30.2,30.2,100,29.73,1.0,East,3.5,-,0.04,,Unknown,100,2013-03-06 08:55:00
4:15 AM,30.2,30.2,100,29.74,0.8,ESE,4.6,-,0.01,,Unknown,110,2013-03-06 09:15:00
4:35 AM,30.2,30.2,100,29.75,1.0,ESE,5.8,-,0.02,,Unknown,110,2013-03-06 09:35:00
4:55 AM,30.2,30.2,100,29.75,0.8,ESE,3.5,-,0.04,,Unknown,110,2013-03-06 09:55:00
5:15 AM,30.2,30.2,100,29.76,0.8,Calm,Calm,-,0.02,,Unknown,0,2013-03-06 10:15:00
5:35 AM,30.2,30.2,100,29.76,1.2,East,4.6,-,0.04,,Unknown,100,2013-03-06 10:35:00
5:55 AM,30.2,30.2,100,29.77,1.2,East,3.5,-,0.05,,Unknown,80,2013-03-06 10:55:00
6:15 AM,30.2,30.2,100,29.78,1.5,East,4.6,-,0.01,,Unknown,80,2013-03-06 11:15:00
6:35 AM,30.2,30.2,100,29.79,1.5,Calm,Calm,-,0.01,,Unknown,0,2013-03-06 11:35:00
6:55 AM,30.2,30.2,100,29.79,1.0,Calm,Calm,-,0.03,,Unknown,0,2013-03-06 11:55:00
7:15 AM,30.2,30.2,100,29.80,1.0,Calm,Calm,-,0.01,,Unknown,0,2013-03-06 12:15:00
7:35 AM,30.2,30.2,100,29.82,1.2,Calm,Calm,-,0.01,,Unknown,0,2013-03-06 12:35:00
7:55 AM,30.2,30.2,100,29.82,2.0,Calm,Calm,-,0.02,,Unknown,0,2013-03-06 12:55:00
8:15 AM,30.2,30.2,100,29.84,2.0,Calm,Calm,-,N/A,,Unknown,0,2013-03-06 13:15:00
8:35 AM,30.2,30.2,100,29.84,3.0,Calm,Calm,-,N/A,,Unknown,0,2013-03-06 13:35:00
8:55 AM,32.0,32.0,100,29.85,7.0,Calm,Calm,-,N/A,,Unknown,0,2013-03-06 13:55:00
9:15 AM,33.8,32.0,93,29.86,10.0,Calm,Calm,-,N/A,,Unknown,0,2013-03-06 14:15:00
9:35 AM,33.8,30.2,87,29.87,10.0,NE,5.8,-,N/A,,Unknown,40,2013-03-06 14:35:00
9:55 AM,33.8,32.0,93,29.87,10.0,NE,6.9,-,N/A,,Unknown,40,2013-03-06 14:55:00
10:15 AM,33.8,30.2,87,29.88,10.0,ENE,6.9,-,N/A,,Unknown,60,2013-03-06 15:15:00
10:35 AM,35.6,30.2,81,29.89,10.0,ENE,6.9,-,N/A,,Unknown,60,2013-03-06 15:35:00
10:55 AM,35.6,30.2,81,29.90,10.0,ENE,8.1,-,N/A,,Unknown,60,2013-03-06 15:55:00
11:15 AM,35.6,30.2,81,29.91,10.0,ENE,4.6,-,N/A,,Unknown,60,2013-03-06 16:15:00
11:35 AM,37.4,30.2,75,29.92,10.0,NE,6.9,-,N/A,,Unknown,50,2013-03-06 16:35:00
11:55 AM,37.4,30.2,75,29.92,10.0,ENE,9.2,-,N/A,,Unknown,60,2013-03-06 16:55:00
12:15 PM,37.4,30.2,75,29.93,10.0,NNE,6.9,-,N/A,,Unknown,30,2013-03-06 17:15:00
12:35 PM,39.2,30.2,70,29.93,10.0,NE,6.9,-,N/A,,Unknown,50,2013-03-06 17:35:00
12:55 PM,37.4,30.2,75,29.94,10.0,NNE,5.8,-,N/A,,Unknown,20,2013-03-06 17:55:00
1:15 PM,39.2,30.2,70,29.93,10.0,ENE,6.9,-,N/A,,Unknown,60,2013-03-06 18:15:00
1:35 PM,42.8,28.4,57,29.93,10.0,ENE,8.1,-,N/A,,Unknown,60,2013-03-06 18:35:00
1:55 PM,39.2,28.4,65,29.94,10.0,NE,8.1,-,N/A,,Unknown,40,2013-03-06 18:55:00
2:15 PM,39.2,28.4,65,29.94,10.0,NE,6.9,-,N/A,,Unknown,50,2013-03-06 19:15:00
2:35 PM,39.2,26.6,61,29.94,10.0,NNE,6.9,-,N/A,,Unknown,20,2013-03-06 19:35:00
2:55 PM,39.2,26.6,61,29.95,10.0,NE,4.6,-,N/A,,Unknown,50,2013-03-06 19:55:00
3:15 PM,39.2,28.4,65,29.96,10.0,NNE,6.9,-,N/A,,Unknown,20,2013-03-06 20:15:00
3:35 PM,39.2,26.6,61,29.97,10.0,North,5.8,-,N/A,,Unknown,10,2013-03-06 20:35:00
3:55 PM,39.2,26.6,61,29.97,10.0,NNE,4.6,-,N/A,,Unknown,20,2013-03-06 20:55:00
4:15 PM,39.2,26.6,61,29.98,10.0,NNE,3.5,-,N/A,,Unknown,20,2013-03-06 21:15:00
4:35 PM,39.2,26.6,61,29.98,10.0,North,4.6,-,N/A,,Unknown,10,2013-03-06 21:35:00
4:55 PM,39.2,26.6,61,30.00,10.0,NNE,5.8,-,N/A,,Unknown,20,2013-03-06 21:55:00
5:15 PM,37.4,26.6,65,30.01,10.0,Calm,Calm,-,N/A,,Unknown,0,2013-03-06 22:15:00
5:35 PM,37.4,26.6,65,30.02,10.0,Calm,Calm,-,N/A,,Unknown,0,2013-03-06 22:35:00
5:55 PM,37.4,26.6,65,30.02,10.0,Calm,Calm,-,N/A,,Unknown,0,2013-03-06 22:55:00
6:15 PM,37.4,26.6,65,30.03,10.0,Calm,Calm,-,N/A,,Unknown,0,2013-03-06 23:15:00
6:35 PM,37.4,26.6,65,30.03,10.0,Calm,Calm,-,N/A,,Unknown,0,2013-03-06 23:35:00
6:55 PM,37.4,26.6,65,30.03,10.0,Calm,Calm,-,N/A,,Unknown,0,2013-03-06 23:55:00
7:15 PM,35.6,28.4,75,30.03,10.0,Calm,Calm,-,N/A,,Unknown,0,2013-03-07 00:15:00
7:35 PM,35.6,26.6,70,30.03,10.0,Calm,Calm,-,N/A,,Unknown,0,2013-03-07 00:35:00
7:55 PM,35.6,28.4,75,30.04,10.0,Calm,Calm,-,N/A,,Unknown,0,2013-03-07 00:55:00
8:15 PM,35.6,26.6,70,30.05,10.0,Calm,Calm,-,N/A,,Unknown,0,2013-03-07 01:15:00
8:35 PM,35.6,26.6,70,30.05,10.0,NW,4.6,-,N/A,,Unknown,320,2013-03-07 01:35:00
8:55 PM,35.6,26.6,70,30.06,10.0,Calm,Calm,-,N/A,,Unknown,0,2013-03-07 01:55:00
9:15 PM,35.6,28.4,75,30.06,10.0,Calm,Calm,-,N/A,,Unknown,0,2013-03-07 02:15:00
9:35 PM,35.6,28.4,75,30.06,10.0,Calm,Calm,-,N/A,,Unknown,0,2013-03-07 02:35:00
9:55 PM,35.6,28.4,75,30.06,10.0,Calm,Calm,-,N/A,,Unknown,0,2013-03-07 02:55:00
10:35 PM,35.6,26.6,70,30.07,10.0,Calm,Calm,-,N/A,,Unknown,0,2013-03-07 03:35:00
10:55 PM,35.6,26.6,70,30.07,10.0,Calm,Calm,-,N/A,,Unknown,0,2013-03-07 03:55:00
11:15 PM,35.6,26.6,70,30.07,10.0,Calm,Calm,-,N/A,,Unknown,0,2013-03-07 04:15:00
11:35 PM,35.6,26.6,70,30.07,10.0,NW,3.5,-,N/A,,Unknown,320,2013-03-07 04:35:00
11:55 PM,35.6,26.6,70,30.07,10.0,Calm,Calm,-,N/A,,Unknown,0,2013-03-07 04:55:00